Weather History for MRLB - October, 2011

Change the Weather History Date:

Tuesday, October 25, 2011

  Actual Average Record
Temperature  
Mean Temperature 78 °F -  
Max Temperature 85 °F 85 °F 93 °F (2000)
Min Temperature 70 °F 72 °F 71 °F (2004)
Cooling Degree Days 12    
Growing Degree Days 28 (Base 50)    
Moisture  
Dew Point 74 °F    
Average Humidity 80    
Maximum Humidity 96    
Minimum Humidity 65    
Precipitation  
Precipitation 0.08 in - - ()
Sea Level Pressure  
Sea Level Pressure 29.84 in    
Wind  
Wind Speed 4 mph ()    
Max Wind Speed 12 mph    
Max Gust Speed -    
Visibility 6.8 miles    
Events Rain    
Averages and records for this station are not official NWS values.
T = Trace of Precipitation, MM = Missing Value Source: Averaged Metar Reports

Daily Weather History Graph

Daily Weather History Graph

Search for Another Location

Airport or City:

Trip Planner

Search our weather history database for the weather conditions in past years. The results will help you decide how hot, cold, wet, or windy it might be!

Date:

Astronomy

Oct. 25, 2011 Rise Set
Actual Time 5:31 AM CST 5:20 PM CST
Civil Twilight 5:10 AM CST 5:41 PM CST
Nautical Twilight 4:45 AM CST 6:06 PM CST
Astronomical Twilight 4:20 AM CST 6:31 PM CST
Moon 4:10 AM CST (10/25) 4:21 PM CST (10/25)
Length of Visible Light 12h 31m
Length of Day
11h 48m
Waning Crescent, 2% of the Moon is Illuminated
Oct 25
Waning Crescent
Oct 26
New
Nov 2
First Quarter
Nov 10
Full
Nov 18
Last Quarter

Hourly Weather History & Observations

Time (CST) Temp. Heat Index Dew Point Humidity Pressure Visibility Wind Dir Wind Speed Gust Speed Precip Events Conditions
6:00 AM 71 °F - 70 °F 96% 29.84 in 1 mi Calm Calm - -   Mist
6:00 AM 71.6 °F - 69.8 °F 94% 29.87 in 0.6 mi Calm Calm - N/A   Overcast
6:20 AM 73.4 °F - 71.6 °F 94% 29.87 in - ENE 2.3 mph - N/A   Clear
7:00 AM 75.2 °F - 73.4 °F 94% 29.88 in 6.2 mi North 2.3 mph - N/A   Scattered Clouds
8:00 AM 78.8 °F - 75.2 °F 89% 29.92 in 6.2 mi Calm Calm - N/A   Scattered Clouds
9:00 AM 82 °F - 76 °F 77% 29.89 in 12 mi WSW 4.6 mph - -   Partly Cloudy
9:00 AM 82.4 °F 89.5 °F 75.2 °F 79% 29.93 in 6.2 mi WSW 4.6 mph - N/A   Scattered Clouds
10:00 AM 84.2 °F 92.3 °F 75.2 °F 74% 29.92 in 6.2 mi West 5.8 mph - N/A   Mostly Cloudy
11:00 AM 84.2 °F 92.3 °F 75.2 °F 74% 29.90 in 6.2 mi West 6.9 mph - N/A   Mostly Cloudy
12:00 PM 85 °F - 75 °F 65% 29.87 in 12 mi West 9.2 mph - -   Partly Cloudy
12:00 PM 84.2 °F 92.3 °F 75.2 °F 74% 29.86 in 6.2 mi West 9.2 mph - N/A   Mostly Cloudy
1:00 PM 82.4 °F 88.2 °F 73.4 °F 74% 29.84 in 6.2 mi West 9.2 mph - N/A   Mostly Cloudy
1:05 PM 82.4 °F 88.2 °F 73.4 °F 74% 29.84 in 6.2 mi West 9.2 mph - N/A Rain Rain
2:00 PM 82.4 °F 88.2 °F 73.4 °F 74% 29.81 in 6.2 mi West 9.2 mph - N/A   Mostly Cloudy
3:00 PM 82 °F - 73 °F 68% 29.78 in 12 mi West 11.5 mph - -   Partly Cloudy
3:00 PM 82.4 °F 88.2 °F 73.4 °F 74% 29.79 in 6.2 mi West 11.5 mph - N/A   Scattered Clouds
4:00 PM 82.4 °F 88.2 °F 73.4 °F 74% 29.79 in 6.2 mi West 10.4 mph - N/A   Mostly Cloudy
5:00 PM 80.6 °F 85.4 °F 73.4 °F 79% 29.79 in 6.2 mi West 8.1 mph - N/A   Mostly Cloudy
6:00 PM 79 °F - 74 °F 79% 29.77 in 12 mi WSW 2.3 mph - -   Partly Cloudy
6:00 PM 78.8 °F - 73.4 °F 83% 29.79 in 6.2 mi WSW 2.3 mph - N/A   Scattered Clouds
7:00 PM 77.0 °F - 73.4 °F 89% 29.80 in 6.2 mi South 3.5 mph - N/A   Mostly Cloudy
8:00 PM 77.0 °F - 73.4 °F 89% 29.83 in 6.2 mi SSE 3.5 mph - N/A   Mostly Cloudy